logo tempoitalia

Diretta Meteo Fort Riley, Stati Uniti (USA)lunedì 31 agosto ore 00:55

Mappa
Sereno 31 °C Sereno 24 Ore: T.min 27 T.max 40
Ponente Sud Km/h 18.5 Punto di rugiada: 16 °C Umidità: 40% Visibilità: 10 Km
Il sole sorge alle: 06:55 Il sole tramonta alle: 19:59
31 Agosto 2026 00:55 tempo osservato: Sereno Sereno 31 40 1011 vento: Nord S 18.5
30 Agosto 2026 23:55 tempo osservato: Sereno Sereno 32 38 1009 vento: Nord S 27.8
30 Agosto 2026 22:55 tempo osservato: Sereno Sereno 33 36 1009 vento: Nord S 29.6
30 Agosto 2026 21:55 tempo osservato: Sereno Sereno 33 38 1009 vento: Nord S 25.9
30 Agosto 2026 20:55 tempo osservato: Sereno Sereno 34 38 1008 vento: Nord S 27.8
30 Agosto 2026 19:55 tempo osservato: Sereno Sereno 35 36 1007 vento: Nord S/SE 22.2
30 Agosto 2026 18:55 tempo osservato: Sereno Sereno 37 32 1007 vento: Nord S 22.2
30 Agosto 2026 17:55 tempo osservato: Sereno Sereno 39 29 1007 vento: Nord S 22.2
30 Agosto 2026 16:55 tempo osservato: Sereno Sereno 40 27 1007 vento: Nord S 27.8
30 Agosto 2026 15:55 tempo osservato: Sereno Sereno 40 27 1008 vento: Nord S 27.8
30 Agosto 2026 14:55 tempo osservato: Sereno Sereno 39 29 1008 vento: Nord S/SO 25.9
30 Agosto 2026 13:55 tempo osservato: Sereno Sereno 39 31 1009 vento: Nord S/SO 29.6
30 Agosto 2026 12:55 tempo osservato: Sereno Sereno 37 35 1009 vento: Nord S 25.9
30 Agosto 2026 11:55 tempo osservato: Sereno Sereno 35 36 1010 vento: Nord S 25.9
30 Agosto 2026 10:55 tempo osservato: Sereno Sereno 33 41 1010 vento: Nord S 25.9
30 Agosto 2026 09:55 tempo osservato: Sereno Sereno 31 45 1010 vento: Nord S 24
30 Agosto 2026 08:55 tempo osservato: Sereno Sereno 29 48 1010 vento: Nord S/SO 22.2
30 Agosto 2026 07:55 tempo osservato: Sereno Sereno 27 50 1010 vento: Nord S 29.6
30 Agosto 2026 06:55 tempo osservato: Sereno Sereno 28 48 1010 vento: Nord S 27.8
30 Agosto 2026 05:55 tempo osservato: Sereno Sereno 27 50 1010 vento: Nord S 22.2
30 Agosto 2026 04:55 tempo osservato: Sereno Sereno 28 48 1011 vento: Nord S 13
30 Agosto 2026 03:55 tempo osservato: Poco Nuvoloso Poco Nuvoloso 29 45 1010 vento: Nord S 18.5
30 Agosto 2026 02:55 tempo osservato: Nuvoloso Nuvoloso 29 45 1010 vento: Nord S 25.9
30 Agosto 2026 01:55 tempo osservato: Sereno Sereno 30 42 1010 vento: Nord S 31.5